Other Public Products
Issued by NWS Grand Forks, ND

Home | Current Version | Previous Version | Graphics & Text | Print | Product List | Glossary On
Versions: 1 2 3 4 5 6 7 8 9 10 11 12 13 14 15 16 17 18 19 20 21 22 23 24 25 26 27 28 29 30 31 32 33 34 35 36 37 38 39 40 41 42 43 44 45 46 47 48 49 50
000
FPUS83 KFGF 310410
OPUFGF
PRAIRIE TO PINES WEATHER ROUNDUP
NATIONAL WEATHER SERVICE EASTERN NORTH DAKOTA/GRAND FORKS ND
1100 PM CDT WED JUL 30 2014

 **SATELLITE DATA USED TO AUGMENT SKY COVER AT AUTOMATED STATIONS**
 *****  WEATHER ACROSS EASTERN NORTH DAKOTA  *****

CITY           SKY/WX    TMP DP  RH WIND       PRES   REMARKS
GRAND FORKS    CLEAR     62  58  86 W3        30.04S
GRAND FORKS AF CLEAR     61  61 100 W2        30.05F
GRAND CITY NWS   N/A     64 N/A N/A MISG        N/A
BUXTON         NOT AVBL
DEVILS LAKE    CLEAR     66  57  72 CALM      30.07S
FARGO          CLEAR     66  57  72 CALM      30.05R
WAHPETON ARPT  CLEAR     63  50  63 SW3       30.06S
$$

 *****  WEATHER ACROSS CENTRAL AND WESTERN NORTH DAKOTA  *****

CITY           SKY/WX    TMP DP  RH WIND       PRES   REMARKS
JAMESTOWN      CLEAR     63  56  78 CALM      30.09S
BISMARCK       PTCLDY    65  57  75 CALM      30.11R
MINOT          CLEAR     66  56  70 SW6       30.11R
MINOT AFB      CLEAR     59  59  99 W6        30.10S
GARRISON         N/A     62  59  90 N6        30.12R
WILLISTON      CLEAR     69  51  52 E5        30.12S
DICKINSON      CLEAR     62  54  74 E5        30.14R
HETTINGER      CLEAR     60  52  74 NW3       30.16R
$$

 *****  OTHER OBSERVATIONS NORTHEAST NORTH DAKOTA  *****

CITY           SKY/WX    TMP DP  RH WIND       PRES   REMARKS
WALHALLA         N/A     63  63 100 SW3         N/A
LANGDON        FAIR      59  57  94 W5        30.08S
CAVALIER       FAIR      64  59  82 CALM      30.04S
GRAFTON        FAIR      64  61  88 W5        30.04S
CANDO          FAIR      59  57  94 W5        30.09S
FORT TOTTEN    NOT AVBL
ROLLA          FAIR      59  57  94 W7        30.11F
RUGBY          FAIR      61  57  88 CALM      30.09S
 ***** THE ABOVE OBSERVATIONS ARE NON NWS ARE NOT QUALITY
        CONTROLLED AND MAY MIS-REPORT RAIN FOR SNOW...
$$

 *****  OTHER OBSERVATIONS SOUTHEAST NORTH DAKOTA *****

CITY           SKY/WX    TMP DP  RH WIND       PRES   REMARKS
COOPERSTOWN    NOT AVBL
VALLEY CITY    FAIR      63  55  77 W5        30.09S
OAKES          NOT AVBL
GWINNER        CLEAR     63  57  82 W6        30.09S
SHEYENNE NWR     N/A     59  55  87 CALM      29.95S
BUFFALO        NOT AVBL
WYNDMERE       NOT AVBL
 ***** THE ABOVE OBSERVATIONS ARE NON NWS ARE NOT QUALITY
       CONTROLLED AND MAY MIS-REPORT RAIN FOR SNOW...
$$

  *****  WEATHER ACROSS NORTHERN MINNESOTA  *****

CITY           SKY/WX    TMP DP  RH WIND       PRES   REMARKS
FLAG ISLAND    PTCLDY    72  61  68 NW9       29.99S
WARROAD        CLEAR     66  61  82 W6        30.02S
ROSEAU           N/A     68  61  77 W6        30.02S
HALLOCK        CLEAR     66  59  77 CALM      30.03S
THF RVR FALLS  CLEAR     64  57  77 CALM      30.05S
HALSTAD          N/A     64  61  90 CALM        N/A
FOSSTON        CLEAR     57  52  82 CALM      30.07S
BAUDETTE       CLEAR     67  59  75 W5        30.01S
WASKISH        CLEAR     70  61  73 W7        30.02S
CROOKSTON      CLEAR     64  61  88 CALM      30.05S
$$
  *****  WEATHER ACROSS CENTRAL AND WEST MINNESOTA  *****

CITY           SKY/WX    TMP DP  RH WIND       PRES   REMARKS
BEMIDJI        CLEAR     62  55  76 W5        30.05S
PARK RAPIDS    CLEAR     59  54  83 W3        30.06S
WADENA         CLEAR     57  54  88 CALM      30.06S
DETROIT LAKES  CLEAR     64  59  82 CALM      30.08S
MOORHEAD       CLEAR     68  63  83 CALM      30.06S
FERGUS FALLS   CLEAR     66  55  68 CALM      30.06S
ELBOW LAKE     FAIR      64  57  76 CALM      30.06S
MORRIS MN      CLEAR     63  57  82 CALM      30.07S
STAPLES        CLEAR     61  54  77 CALM      30.06S
WHEATON        CLEAR     63  57  82 SW3       30.09R
$$
  *****  WEATHER ELSEWHERE ACROSS MINNESOTA  *****

CITY           SKY/WX    TMP DP  RH WIND       PRES   REMARKS
DULUTH         CLEAR     66  56  70 W7        30.00R
INTRNTL FALLS  CLEAR     59  56  89 CALM      29.99S
ELY            PTCLDY    57  55  94 CALM      30.00S
CLOQUET        CLEAR     64  55  72 W6        30.01S
BRAINERD       CLEAR     61  57  87 CALM      30.05S
HIBBING        CLEAR     67  55  65 W7        30.01S
ALEXANDRIA     CLEAR     64  56  75 W3        30.09S
SAINT CLOUD    CLEAR     66  55  67 NW5       30.05S
MINNEAPOLIS    CLEAR     72  58  61 W6        30.04S
$$

  *****  WEATHER ACROSS SOUTH DAKOTA  *****

CITY           SKY/WX    TMP DP  RH WIND       PRES   REMARKS
SIOUX FALLS    CLEAR     64  55  72 CALM      30.11R
BROOKINGS      NOT AVBL
WATERTOWN      CLEAR     64  55  72 CALM      30.11R
HURON          CLEAR     66  57  72 MISG      30.08S
SISSETON         N/A     60  56  86 W3        30.07S
ABERDEEN       CLOUDY    64  57  78 CALM      30.10R
MITCHELL       CLEAR     66  58  75 S6        30.10R
PIERRE         PTCLDY    70  57  63 E6        30.07R
MOBRIDGE         N/A     70  58  65 E9        30.09R
RAPID CITY     MOCLDY    65  50  58 NW10      30.17R
$$

  *****  SOME WEATHER IN NEARBY STATES *****

CITY           SKY/WX    TMP DP  RH WIND       PRES   REMARKS
GLASGOW MT     PTCLDY    74  50  42 SE12      30.05S
GREAT FALLS MT CLOUDY    75  40  28 SW8       30.11R
CHEYENNE WY    CLOUDY    57  54  89 SW8       30.36R
SCOTTSBLUFF NE MOCLDY    67  58  72 SW3       30.23R
OMAHA NE       CLEAR     67  59  75 CALM      30.11S
DES MOINES IA  CLEAR     70  56  61 CALM      30.09S
DAVENPORT IA   CLEAR     61  58  90 SW3       30.07R
CHICAGO IL     CLEAR     64  55  72 SE6       30.04R
EAU CLAIRE WI  CLEAR     62  61  96 SW5       30.01S
LA CROSSE WI   CLEAR     68  62  81 SE5       30.02S
$$

  *****  SOME NATIONAL WEATHER *****

CITY           SKY/WX    TMP DP  RH WIND       PRES   REMARKS
LA GUARDIA NY  PTCLDY    73  58  59 S7        30.04S
RALEIGH NC     MOCLDY    69  64  84 CALM      30.08F
ATLANTA GA     MOCLDY    75  57  53 N8        30.05S
NEW ORLEANS LA PTCLDY    78  60  53 E7        30.02S
OKLAHOMA CITY  CLOUDY    70  67  90 NE8       30.02R
ALBUQUERQUE NM CLOUDY    72  58  61 E35G46    30.17R
SALT LAKE CITY PTCLDY    74  52  46 E8        30.17R
LOS ANGELES CA PTCLDY    69  63  81 W5        29.92R
BOISE ID       PTCLDY    83  45  26 SE5       30.07R
SEATTLE WA     PTCLDY    77  49  37 NE10      30.10R
$$

*** WEATHER ACROSS MANITOBA...SASKATCHEWAN AND ONTARIO ***
                ***ONTARIO***

CITY           SKY/WX    TMP DP  RH WIND       PRES   REMARKS
GERALDTON      CLOUDY    57  52  82 NW5       29.93S
THUNDER BAY    NOT AVBL
SIOUX LOOKOUT  CLEAR     52  52 100 N2        29.99S
TORONTO        PTCLDY    63  54  72 N7        29.98F
BIG TROUT LK   CLEAR     57  45  62 N8        29.97S
PICKLE LAKE    NOT AVBL
DRYDEN         CLEAR     64  52  63 N2        29.99S
KENORA         NOT AVBL
$$
                *** MANITOBA***

CITY           SKY/WX    TMP DP  RH WIND       PRES   REMARKS
BRANDON        CLEAR     61  57  88 NW6       30.08S
DAUPHIN        PTCLDY    64  59  82 W9        30.06S
ISLAND LAKE    CLEAR     64  52  63 NE3       30.05S
PILOT MOUND      N/A     63  57  82 NW3         N/A
THE PAS        CLOUDY    68  61  77 CALM      30.03S
THOMPSON       CLEAR     61  55  82 CALM      30.04S
WINNIPEG       MOCLDY    63  59  88 NW6       30.03R
LYNN LAKE      PTCLDY    68  50  52 E3        30.06R
CHURCHILL      PTCLDY    54  46  76 SE7       30.12S
GILLAM         CLOUDY    61  50  67 E6        30.09R
$$
                ***SASKATCHEWAN***

CITY           SKY/WX    TMP DP  RH WIND       PRES   REMARKS
ESTEVAN        MOCLDY    63  59  88 SE5       30.11F
KINDERSLEY     MOCLDY    70  68  94 NE9       30.03S
LLOYDMINSTER   CLEAR     68  63  83 E8        30.05S
PRINCE ALBERT  NOT AVBL
REGINA         MOCLDY    68  59  73 SE10      30.09R



USA.gov is the U.S. government's official web portal to all federal, state and local government web resources and services.